Flag for U.S.A. Weather past 2 weeks in Arden-Arcade, California, U.S.A.

Now
57 °F

Passing clouds.


Feels Like: 56 °F
Forecast: 48 / 82 °F
Wind: 7 mph from South

Location: Mather Field


UV Index: 5 (Moderate)

Visibility: 10 mi


Pressure: 30.05 "Hg

Humidity: 88%

Dew point: 54 °F

Location of Arden-ArcadeLocation

Historic Weather in Arden-Arcade

°F

Arden-Arcade temperature yesterday

Maximum temperature yesterday: 79 °F (at 3:47 PM)
Minimum temperature yesterday: 54 °F (at 2:55 AM)
Average temperature yesterday: 65 °F

Past Weeks' High & Low Weather Summary

 TemperatureHumidityPressure
High84 °F (Apr 8, 4:50 PM)100% (Apr 5, 2:45 AM)30.22 "Hg (Apr 5, 2:45 AM)
Low41 °F (Apr 5, 2:45 AM)23% (Apr 13, 3:46 PM)29.75 "Hg (Apr 17, 5:50 PM)
Average63 °F69%29.96 "Hg
* Reported Apr 4 8:52 PM — Apr 19 8:46 PM, Arden-Arcade, Weather by CustomWeather, © 2014

Note: Actual official high and low records may vary slightly from our data, if they occured in-between our weather recording intervals... More about our weather records

Advertising

Historic Weather Conditions — Data for Previous 24 hours

 ConditionsComfort  
Time TempWeatherWind HumidityBarometerVisibility
8:46 PM
Apr 19
57 °FPassing clouds.7 mph88%30.05 "Hg10 mi
7:46 PM61 °FScattered clouds.6 mph77%30.03 "Hg10 mi
6:46 PM68 °FScattered clouds.12 mph56%30.02 "Hg10 mi
5:46 PM73 °FPassing clouds.13 mph44%30.01 "Hg10 mi
3:54 PM75 °FSunny.10 mph29%30.01 "Hg10 mi
2:53 PM73 °FSunny.9 mph31%30.02 "Hg10 mi
12:54 PM68 °FPassing clouds.8 mph43%30.03 "Hg10 mi
11:45 AM66 °FScattered clouds.10 mph46%30.04 "Hg10 mi
10:50 AM63 °FPassing clouds.10 mph56%30.03 "Hg10 mi
9:45 AM59 °FPassing clouds.12 mph63%30.01 "Hg10 mi
8:45 AM55 °FPassing clouds.10 mph72%30.00 "Hg10 mi
7:50 AM52 °FPassing clouds.8 mph82%29.99 "Hg10 mi
6:47 AM46 °FPassing clouds.8 mph100%29.96 "Hg10 mi
5:48 AM50 °FPassing clouds.9 mph88%29.94 "Hg10 mi
4:45 AM52 °FClear.9 mph82%29.92 "Hg10 mi
3:45 AM52 °FClear.7 mph82%29.91 "Hg10 mi
2:45 AM54 °FClear.7 mph77%29.89 "Hg10 mi
Weather by CustomWeather, © 2014

See weather overview